CELTEE

operational
NORAD ID: 41850 Int'l Des: 2016-067 Owner: AFRL Country: US
LEOCIRCULARRETROGRADE

About CELTEE

Description loading...

Live Position

Loading 3D Globe...

Upcoming Passes

Altitude History

Altitude vs Time

uPlot chart will show altitude changes over time

Two-Line Element Set

1 41850U 16067C 26061.56582436 .00007540 00000-0 36940-3 0 9993
2 41850 98.0827 280.8515 0000538 127.4358 232.6924 15.18474650509697
Epoch: Mar 2, 2026 • Age: 41 hours

Current Status

Altitude 519.8 km
Velocity 7.61 km/s
Sub-Earth Point 56.82°N, 142.66°W
Launch Date Nov 11, 2016
Age 9.3 years
Type other

Technical Details

Classification Payload
Mass 1.00 kg
Dry Mass 1.00 kg
Total Mass 1.00 kg
Length 0.10 m
Diameter 0.10 m
Span 0.10 m
Shape Box
Manufacturer M42
Bus Type Cubesat 1U
Phase Status In Orbit
Owner/State AFRL/US

Large Constellations

Loading constellations...